Location: Ellerstadt
(49.4644°N, 8.2615°E)
Time: 23:59:15
(UTC+00:00)

Cosmos 2369 Rocket - Pass Details

Date: 03 March 2021
Orbit: 829 x 852 km, 71.0° (Epoch: 12 April)

Event Time Altitude Azimuth Distance (km) Brightness Sun altitude
Rises 19:44:23 0° 334° (NNW) 3,384 6.0 -25.0°
Reaches altitude 10° 19:48:06 10° 358° (N) 2,448 4.9 -25.6°
Maximum altitude 19:51:05 14° 31° (NNE) 2,149 4.2 -26.0°
Enters shadow 19:51:10 14° 32° (NNE) 2,150 4.2 -26.0°
